Location: Beutels
(47.8767°N, 9.8584°E)
Time: 10:31:22
(UTC+00:00)

USA 245 - Pass Details

Date: 19 May 2025
Orbit: 292 x 1030 km, 97.9° (Epoch: 02 June)

Event Time Altitude Azimuth Distance (km) Brightness Sun altitude
Exits shadow 20:37:31 15° 177° (S) 1,670 5.3 -13.3°
Maximum altitude 20:41:05 69° 259° (W) 754 4.0 -13.7°
Drops below altitude 10° 20:46:26 10° 343° (NNW) 2,432 7.8 -14.2°
Sets 20:49:05 0° 346° (NNW) 3,481 8.8 -14.5°
